Zurück zum Katalog

FLOCK 4H 24

AktivWissenschaftSSO
NORAD 66727·PAYLOAD·🇺🇸 United States

Gestartet Nov 28, 2025 von Vandenberg Space Force Base

Loading…

Nächste Überflüge (nächste 24 Stunden)

TLE

AktuellSource: CelesTrak SupGP

Epoche: Sep 14, 2026, 06:45 UTC

1 66727C 25276BP  26257.28133102  .00006592  00000+0  29925-3 0  2570
2 66727  97.4164 329.4904 0005470  72.8259  25.1687 15.20850984    13

Verfolge FLOCK 4H 24 in Echtzeit mit AllMySat

Download on the App Store